User: anonymous   Login
Location: Buckeye Ditch
(40.9104°N, 122.9517°W)
Time: 16:52:18
(UTC+00:00)
Language:

Cosmos 1674 - Orbit

View from above orbital plane
View from above orbital plane
View from above satellite
View from above satellite

Ground track
Ground track

The orbit data is extracted from the following two-line orbital elements,

1 15944U 85069A   24173.50448928  .00016362  00000-0  39696-3 0  9992
2 15944  82.4968 195.9219 0013317 156.2875 203.8988 15.40814451127446
Epoch (UTC): 21 June 2024 12:06:27
Eccentricity: 0.0013317
inclination: 82.4968°
perigee height: 434 km
apogee height: 453 km
right ascension of ascending node: 195.9219°
argument of perigee: 156.2875°
revolutions per day: 15.40814451
mean anomaly at epoch: 203.8988°
orbit number at epoch: 12744

The dashed part of the orbit path shows where the satellite is in the earth's shadow,  

DLR